Location: Bronnegerveen
(52.9548°N, 6.8388°E)
Time: 02:08:50
(UTC+00:00)

SOZ - Pass Details

Date: 15 June 2025
Orbit: 294 x 16260 km, 51.9° (Epoch: 06 July)

Event Time Altitude Azimuth Distance (km) Brightness Sun altitude
Exits shadow 01:04:31 13° 249° (WSW) 998 6.3 -11.2°
Maximum altitude 01:06:15 61° 169° (SSE) 365 4.2 -11.1°
Drops below altitude 10° 01:09:04 10° 87° (E) 1,600 8.0 -10.9°
Sets 01:12:06 0° 84° (E) 3,190 9.6 -10.8°
